DLH509 EDDH-EDDC

Flight info

Callsign DLH509
Flight time 0h 49m
Altitude 23000
Route RAMAR6G RAMAR Z998 NUSGU/N0435F270 Z998 OSKAN OSKAN4B
Aircraft A343/H-SDE2E3FGHIJ4J5M1RWXY/LB1D1

Departure

Time 2026-04-21 09:32
Airport Hamburg Helmut Schmidt Airport (EDDH)

Arrival

Time 2026-04-21 10:21
Airport Dresden Airport (EDDC)
Time Latitude Longitude Altitude Speed Heading
2026-04-21 09:03 53.62948 10.00273 49 ft 0 kts 123°
2026-04-21 09:22 53.62958 10.00248 47 ft 4 kts 126°
2026-04-21 09:22 53.62975 10.00212 47 ft 4 kts 134°
2026-04-21 09:22 53.62995 10.00182 46 ft 4 kts 150°
2026-04-21 09:22 53.63017 10.00171 45 ft 4 kts 200°
2026-04-21 09:23 53.63023 10.00174 46 ft 0 kts 212°
2026-04-21 09:25 53.63021 10.00172 47 ft 1 kts 212°
2026-04-21 09:25 53.63006 10.00156 46 ft 4 kts 212°
2026-04-21 09:25 53.62978 10.00125 47 ft 6 kts 212°
2026-04-21 09:25 53.62934 10.00080 47 ft 9 kts 212°
2026-04-21 09:26 53.62872 10.00058 50 ft 10 kts 172°
2026-04-21 09:26 53.62802 10.00111 49 ft 12 kts 153°
2026-04-21 09:26 53.62721 10.00182 48 ft 14 kts 153°
2026-04-21 09:26 53.62635 10.00256 49 ft 12 kts 159°
2026-04-21 09:27 53.62581 10.00221 49 ft 0 kts 227°
2026-04-21 09:28 53.62580 10.00219 49 ft 0 kts 227°
2026-04-21 09:29 53.62572 10.00204 49 ft 3 kts 232°
2026-04-21 09:29 53.62555 10.00158 49 ft 6 kts 240°
2026-04-21 09:29 53.62542 10.00098 48 ft 3 kts 260°
2026-04-21 09:29 53.62543 10.00068 51 ft 4 kts 274°
2026-04-21 09:30 53.62558 10.00021 50 ft 6 kts 311°
2026-04-21 09:30 53.62598 9.99977 46 ft 8 kts 329°
2026-04-21 09:30 53.62608 9.99968 51 ft 0 kts 330°
2026-04-21 09:31 53.62619 9.99957 51 ft 11 kts 330°
2026-04-21 09:32 53.62903 9.99696 49 ft 85 kts 335°
2026-04-21 09:32 53.63685 9.99040 52 ft 163 kts 334°
2026-04-21 09:32 53.64756 9.98096 809 ft 181 kts 334°
2026-04-21 09:32 53.65954 9.97045 1600 ft 212 kts 337°
2026-04-21 09:33 53.67320 9.95875 2525 ft 228 kts 337°
2026-04-21 09:33 53.68751 9.94853 3897 ft 217 kts 352°
2026-04-21 09:33 53.70213 9.94610 5145 ft 210 kts
2026-04-21 09:33 53.71678 9.94664 6245 ft 211 kts 10°
2026-04-21 09:34 53.73073 9.95349 7259 ft 210 kts 32°
2026-04-21 09:34 53.74177 9.97000 8029 ft 223 kts 56°
2026-04-21 09:34 53.74972 9.99409 8594 ft 245 kts 66°
2026-04-21 09:34 53.75687 10.02080 9472 ft 253 kts 66°
2026-04-21 09:35 53.76420 10.04814 10471 ft 258 kts 66°
2026-04-21 09:35 53.77199 10.07645 11066 ft 276 kts 66°
2026-04-21 09:35 53.78052 10.10696 11451 ft 298 kts 65°
2026-04-21 09:35 53.78975 10.13971 11818 ft 319 kts 65°
2026-04-21 09:36 53.79953 10.17421 12425 ft 330 kts 65°
2026-04-21 09:36 53.80959 10.20957 13241 ft 335 kts 65°
2026-04-21 09:36 53.81968 10.24495 14095 ft 340 kts 65°
2026-04-21 09:36 53.82990 10.28132 14882 ft 344 kts 66°
2026-04-21 09:37 53.83842 10.31935 15670 ft 348 kts 74°
2026-04-21 09:37 53.84243 10.35987 16469 ft 352 kts 86°
2026-04-21 09:37 53.84089 10.40155 17287 ft 357 kts 98°
2026-04-21 09:37 53.83570 10.44294 18091 ft 362 kts 101°
2026-04-21 09:38 53.82962 10.48460 18828 ft 366 kts 102°
2026-04-21 09:38 53.82346 10.52666 19517 ft 370 kts 101°
2026-04-21 09:38 53.81738 10.56907 20235 ft 372 kts 101°
2026-04-21 09:38 53.81134 10.61185 20912 ft 375 kts 101°
2026-04-21 09:39 53.80526 10.65502 21564 ft 379 kts 101°
2026-04-21 09:39 53.79738 10.69784 22213 ft 384 kts 109°
2026-04-21 09:39 53.78502 10.73820 22866 ft 391 kts 117°
2026-04-21 09:39 53.77049 10.77752 23284 ft 396 kts 119°
2026-04-21 09:40 53.75543 10.81707 23395 ft 405 kts 119°
2026-04-21 09:40 53.74010 10.85740 23368 ft 410 kts 119°
2026-04-21 09:40 53.72453 10.89785 23370 ft 411 kts 121°
2026-04-21 09:40 53.70653 10.93557 23368 ft 416 kts 130°
2026-04-21 09:41 53.68399 10.96661 23369 ft 421 kts 140°
2026-04-21 09:41 53.65939 10.99375 23370 ft 423 kts 143°
2026-04-21 09:41 53.63404 11.01908 23363 ft 424 kts 145°
2026-04-21 09:41 53.60870 11.04343 23359 ft 424 kts 145°
2026-04-21 09:42 53.58301 11.06803 23350 ft 424 kts 145°
2026-04-21 09:42 53.55743 11.09281 23346 ft 424 kts 145°
2026-04-21 09:42 53.53197 11.11784 23344 ft 424 kts 144°
2026-04-21 09:42 53.50662 11.14310 23338 ft 424 kts 144°
2026-04-21 09:43 53.48133 11.16852 23332 ft 423 kts 144°
2026-04-21 09:43 53.45608 11.19401 23345 ft 423 kts 144°
2026-04-21 09:43 53.43086 11.21950 23336 ft 424 kts 144°
2026-04-21 09:43 53.40560 11.24503 23334 ft 424 kts 144°
2026-04-21 09:44 53.38037 11.27051 23331 ft 424 kts 144°
2026-04-21 09:44 53.35507 11.29599 23330 ft 424 kts 144°
2026-04-21 09:44 53.32977 11.32143 23328 ft 424 kts 144°
2026-04-21 09:44 53.30451 11.34680 23322 ft 424 kts 144°
2026-04-21 09:45 53.27950 11.37246 23596 ft 419 kts 141°
2026-04-21 09:45 53.25659 11.40170 24320 ft 412 kts 135°
2026-04-21 09:45 53.23502 11.43299 24953 ft 409 kts 133°
2026-04-21 09:45 53.21400 11.46506 25498 ft 410 kts 132°
2026-04-21 09:46 53.19339 11.49722 26003 ft 412 kts 131°
2026-04-21 09:46 53.17248 11.53003 26490 ft 414 kts 131°
2026-04-21 09:46 53.15135 11.56309 26880 ft 419 kts 132°
2026-04-21 09:46 53.12995 11.59642 27235 ft 424 kts 132°
2026-04-21 09:47 53.10811 11.63024 27307 ft 431 kts 132°
2026-04-21 09:47 53.08607 11.66408 27312 ft 431 kts 133°
2026-04-21 09:47 53.06395 11.69781 27313 ft 430 kts 133°
2026-04-21 09:47 53.04187 11.73138 27312 ft 430 kts 133°
2026-04-21 09:48 53.01978 11.76489 27321 ft 430 kts 133°
2026-04-21 09:48 52.99796 11.79880 27309 ft 428 kts 130°
2026-04-21 09:48 52.97829 11.83551 27306 ft 424 kts 125°
2026-04-21 09:48 52.95978 11.87358 27306 ft 424 kts 124°
2026-04-21 09:49 52.94178 11.91230 27301 ft 423 kts 123°
2026-04-21 09:49 52.92406 11.95128 27301 ft 423 kts 122°
2026-04-21 09:49 52.90648 11.99024 27300 ft 423 kts 122°
2026-04-21 09:49 52.88885 12.02924 27298 ft 423 kts 122°
2026-04-21 09:50 52.87114 12.06824 27298 ft 423 kts 123°
2026-04-21 09:50 52.86540 12.08085 27298 ft 423 kts 123°
2026-04-21 09:50 52.81810 12.18415 27299 ft 423 kts 123°
2026-04-21 09:51 52.80026 12.22283 27291 ft 422 kts 123°
2026-04-21 09:51 52.78244 12.26136 27290 ft 422 kts 123°
2026-04-21 09:51 52.76460 12.29987 27290 ft 422 kts 123°
2026-04-21 09:51 52.74676 12.33833 27290 ft 422 kts 123°
2026-04-21 09:52 52.72891 12.37674 27285 ft 422 kts 123°
2026-04-21 09:52 52.70971 12.41358 27254 ft 425 kts 129°
2026-04-21 09:52 52.68764 12.44618 26929 ft 427 kts 138°
2026-04-21 09:52 52.66316 12.47375 26406 ft 424 kts 142°
2026-04-21 09:53 52.63793 12.49866 25897 ft 422 kts 144°
2026-04-21 09:53 52.61247 12.52242 25396 ft 420 kts 145°
2026-04-21 09:53 52.58706 12.54586 24900 ft 417 kts 145°
2026-04-21 09:53 52.56185 12.56934 24438 ft 416 kts 145°
2026-04-21 09:54 52.53682 12.59304 23973 ft 414 kts 144°
2026-04-21 09:54 52.51200 12.61690 23428 ft 412 kts 144°
2026-04-21 09:54 52.48739 12.64079 22954 ft 409 kts 144°
2026-04-21 09:54 52.46301 12.66459 22522 ft 407 kts 144°
2026-04-21 09:55 52.43910 12.68801 22082 ft 405 kts 144°
2026-04-21 09:55 52.41497 12.71164 21647 ft 403 kts 144°
2026-04-21 09:55 52.39101 12.73510 21215 ft 401 kts 144°
2026-04-21 09:55 52.36714 12.75842 20811 ft 398 kts 144°
2026-04-21 09:56 52.34340 12.78158 20388 ft 396 kts 144°
2026-04-21 09:56 52.31977 12.80460 19975 ft 395 kts 144°
2026-04-21 09:56 52.29618 12.82754 19597 ft 393 kts 144°
2026-04-21 09:56 52.27272 12.85034 19194 ft 391 kts 145°
2026-04-21 09:57 52.24936 12.87302 18794 ft 390 kts 145°
2026-04-21 09:57 52.22613 12.89562 18379 ft 388 kts 145°
2026-04-21 09:57 52.20299 12.91815 17949 ft 386 kts 145°
2026-04-21 09:57 52.17999 12.94052 17523 ft 384 kts 145°
2026-04-21 09:58 52.15706 12.96280 17085 ft 382 kts 145°
2026-04-21 09:58 52.13428 12.98490 16669 ft 380 kts 145°
2026-04-21 09:58 52.11160 13.00688 16244 ft 378 kts 145°
2026-04-21 09:58 52.09662 13.02138 15964 ft 377 kts 145°
2026-04-21 09:59 52.07420 13.04306 15552 ft 374 kts 145°
2026-04-21 09:59 52.05185 13.06464 15155 ft 372 kts 145°
2026-04-21 09:59 52.02965 13.08605 14756 ft 370 kts 145°
2026-04-21 09:59 52.00752 13.10739 14361 ft 369 kts 145°
2026-04-21 10:00 51.98552 13.12858 13962 ft 367 kts 145°
2026-04-21 10:00 51.96358 13.14969 13526 ft 365 kts 145°
2026-04-21 10:00 51.94172 13.17068 13092 ft 363 kts 146°
2026-04-21 10:00 51.91999 13.19153 12677 ft 361 kts 146°
2026-04-21 10:01 51.89841 13.21220 12251 ft 360 kts 146°
2026-04-21 10:01 51.87693 13.23277 11834 ft 358 kts 146°
2026-04-21 10:01 51.85583 13.25295 11433 ft 356 kts 146°
2026-04-21 10:01 51.83459 13.27325 11040 ft 354 kts 146°
2026-04-21 10:02 51.78973 13.30365 10264 ft 347 kts 161°
2026-04-21 10:02 51.76619 13.31111 9845 ft 343 kts 169°
2026-04-21 10:02 51.74260 13.31472 9413 ft 339 kts 173°
2026-04-21 10:03 51.71919 13.31626 8995 ft 334 kts 176°
2026-04-21 10:03 51.69614 13.31693 8566 ft 328 kts 176°
2026-04-21 10:03 51.67342 13.31747 8148 ft 324 kts 176°
2026-04-21 10:03 51.65113 13.31797 7895 ft 314 kts 176°
2026-04-21 10:04 51.62978 13.31838 7777 ft 301 kts 176°
2026-04-21 10:04 51.60919 13.31873 7654 ft 290 kts 176°
2026-04-21 10:04 51.58936 13.31902 7536 ft 282 kts 176°
2026-04-21 10:04 51.56986 13.31925 7403 ft 279 kts 176°
2026-04-21 10:05 51.55065 13.31945 7285 ft 280 kts 176°
2026-04-21 10:05 51.53121 13.31967 7157 ft 279 kts 176°
2026-04-21 10:05 51.51176 13.31986 7035 ft 279 kts 176°
2026-04-21 10:05 51.49238 13.31994 6908 ft 278 kts 176°
2026-04-21 10:06 51.47302 13.31999 6780 ft 278 kts 176°
2026-04-21 10:06 51.45370 13.32001 6655 ft 277 kts 176°
2026-04-21 10:06 51.43445 13.32001 6524 ft 277 kts 176°
2026-04-21 10:06 51.41521 13.32003 6379 ft 276 kts 176°
2026-04-21 10:07 51.39603 13.32007 6244 ft 275 kts 176°
2026-04-21 10:07 51.37686 13.32011 6114 ft 275 kts 176°
2026-04-21 10:07 51.35777 13.32014 5983 ft 275 kts 176°
2026-04-21 10:07 51.33862 13.32018 5845 ft 274 kts 176°
2026-04-21 10:08 51.31957 13.32023 5710 ft 273 kts 176°
2026-04-21 10:08 51.30056 13.32030 5579 ft 273 kts 176°
2026-04-21 10:08 51.28159 13.32037 5464 ft 272 kts 176°
2026-04-21 10:08 51.26267 13.32033 5338 ft 272 kts 176°
2026-04-21 10:09 51.24379 13.32025 5209 ft 271 kts 176°
2026-04-21 10:09 51.22490 13.32018 5075 ft 271 kts 176°
2026-04-21 10:09 51.20602 13.32014 4955 ft 271 kts 176°
2026-04-21 10:09 51.18721 13.32006 4802 ft 270 kts 176°
2026-04-21 10:10 51.16848 13.31998 4683 ft 269 kts 176°
2026-04-21 10:10 51.14978 13.31999 4549 ft 269 kts 176°
2026-04-21 10:10 51.13111 13.32005 4407 ft 268 kts 176°
2026-04-21 10:10 51.11250 13.32013 4286 ft 267 kts 176°
2026-04-21 10:11 51.09390 13.32024 4156 ft 267 kts 176°
2026-04-21 10:11 51.07547 13.32138 4029 ft 265 kts 172°
2026-04-21 10:11 51.05713 13.32370 3978 ft 264 kts 172°
2026-04-21 10:11 51.03887 13.32618 3988 ft 259 kts 172°
2026-04-21 10:12 51.02162 13.32845 3996 ft 245 kts 172°
2026-04-21 10:12 51.00508 13.33054 3981 ft 232 kts 172°
2026-04-21 10:12 50.98934 13.33243 3983 ft 223 kts 172°
2026-04-21 10:12 50.97389 13.33421 3982 ft 223 kts 171°
2026-04-21 10:13 50.95923 13.34070 3981 ft 216 kts 148°
2026-04-21 10:13 50.94679 13.35346 3975 ft 212 kts 136°
2026-04-21 10:13 50.93542 13.36835 3973 ft 211 kts 134°
2026-04-21 10:13 50.92465 13.38413 3974 ft 210 kts 129°
2026-04-21 10:14 50.91483 13.40124 3969 ft 210 kts 126°
2026-04-21 10:14 50.90556 13.41901 3968 ft 209 kts 120°
2026-04-21 10:14 50.90024 13.43994 3973 ft 203 kts 94°
2026-04-21 10:14 50.90209 13.46143 3968 ft 197 kts 61°
2026-04-21 10:15 50.91121 13.47720 3976 ft 195 kts 40°
2026-04-21 10:15 50.92205 13.49031 3973 ft 197 kts 37°
2026-04-21 10:15 50.93314 13.50322 3974 ft 199 kts 37°
2026-04-21 10:15 50.94429 13.51625 3978 ft 199 kts 38°
2026-04-21 10:16 50.95539 13.52930 3977 ft 198 kts 38°
2026-04-21 10:16 50.96639 13.54232 3979 ft 198 kts 38°
2026-04-21 10:16 50.97730 13.55529 3980 ft 199 kts 38°
2026-04-21 10:16 50.98831 13.56854 3983 ft 198 kts 39°
2026-04-21 10:17 50.99892 13.58242 3980 ft 197 kts 41°
2026-04-21 10:17 51.00938 13.59653 3850 ft 198 kts 41°
2026-04-21 10:17 51.01990 13.61079 3565 ft 200 kts 42°
2026-04-21 10:17 51.03053 13.62528 3256 ft 203 kts 42°
2026-04-21 10:18 51.04117 13.63983 2970 ft 199 kts 42°
2026-04-21 10:18 51.05138 13.65381 2701 ft 190 kts 41°
2026-04-21 10:18 51.06110 13.66717 2479 ft 177 kts 41°
2026-04-21 10:18 51.07008 13.67951 2211 ft 165 kts 40°
2026-04-21 10:19 51.07844 13.69102 1982 ft 153 kts 40°
2026-04-21 10:19 51.08617 13.70164 1781 ft 139 kts 39°
2026-04-21 10:19 51.09319 13.71129 1564 ft 128 kts 39°
2026-04-21 10:19 51.09979 13.72038 1394 ft 125 kts 40°
2026-04-21 10:20 51.10638 13.72946 1227 ft 126 kts 39°
2026-04-21 10:20 51.11300 13.73857 1050 ft 125 kts 39°
2026-04-21 10:20 51.11968 13.74754 896 ft 126 kts 38°
2026-04-21 10:20 51.12630 13.75657 740 ft 124 kts 41°
2026-04-21 10:21 51.13209 13.76494 722 ft 95 kts 42°
2026-04-21 10:21 51.13639 13.77081 721 ft 70 kts 41°
2026-04-21 10:21 51.13867 13.77403 720 ft 15 kts 41°
2026-04-21 10:21 51.13890 13.77528 720 ft 12 kts 114°
2026-04-21 10:22 51.13834 13.77640 720 ft 14 kts 130°
2026-04-21 10:22 51.13825 13.77658 720 ft 0 kts 130°
2026-04-21 10:23 51.13824 13.77659 720 ft 1 kts 130°
2026-04-21 10:23 51.13762 13.77702 718 ft 12 kts 191°
2026-04-21 10:23 51.13690 13.77628 720 ft 13 kts 220°
2026-04-21 10:23 51.13616 13.77528 720 ft 15 kts 220°
2026-04-21 10:24 51.13534 13.77412 720 ft 16 kts 221°
2026-04-21 10:24 51.13443 13.77289 720 ft 18 kts 220°
2026-04-21 10:24 51.13342 13.77155 719 ft 20 kts 220°
2026-04-21 10:24 51.13235 13.77005 719 ft 21 kts 221°
2026-04-21 10:25 51.13121 13.76848 718 ft 23 kts 221°
2026-04-21 10:25 51.12998 13.76679 720 ft 24 kts 220°
2026-04-21 10:25 51.12873 13.76510 720 ft 20 kts 221°
2026-04-21 10:25 51.12789 13.76467 720 ft 11 kts 148°
2026-04-21 10:26 51.12748 13.76537 720 ft 9 kts 132°
2026-04-21 10:26 51.12730 13.76607 719 ft 5 kts 68°
2026-04-21 10:26 51.12762 13.76656 718 ft 7 kts 41°
2026-04-21 10:26 51.12765 13.76660 718 ft 1 kts 41°
2026-04-21 10:27 51.12775 13.76675 719 ft 3 kts 41°
2026-04-21 10:27 51.12778 13.76678 719 ft 0 kts 41°